Weather History for KY70 - October, 2013

Change the Weather History Date:

Tuesday, October 15, 2013

  Actual Average (KGRR) Record (KGRR)
Temperature  
Mean Temperature 52 °F 51 °F  
Max Temperature 65 °F 61 °F 85 °F (1947)
Min Temperature 39 °F 42 °F 23 °F (1944)
Degree Days  
Heating Degree Days 13 14  
Month to date heating degree days 175  
Since 1 July heating degree days 327  
Cooling Degree Days 0 0  
Month to date cooling degree days 4  
Year to date cooling degree days 696  
Growing Degree Days 2 (Base 50)    
Moisture  
Dew Point 50 °F    
Average Humidity 89    
Maximum Humidity 99    
Minimum Humidity 71    
Precipitation  
Precipitation 0.23 in 0.09 in 0.90 in (1942)
Month to date precipitation 1.60  
Year to date precipitation 30.60  
Snow  
Snow 0.00 in 0.00 in 0.00 in (2002)
Month to date snowfall 0.1  
Since 1 July snowfall 0.1  
Since 1 September snowfall 0.1  
Snow Depth -    
Sea Level Pressure  
Sea Level Pressure 30.00 in    
Wind  
Wind Speed 7 mph (SE)    
Max Wind Speed 21 mph    
Max Gust Speed 20 mph    
Visibility 8 miles    
Events Rain    
T = Trace of Precipitation, MM = Missing Value Source: NWS Daily Summary

Daily Weather History Graph

Daily Weather History Graph

Search for Another Location

Airport or City:

Trip Planner

Search our weather history database for the weather conditions in past years. The results will help you decide how hot, cold, wet, or windy it might be!

Date:

Astronomy

Oct. 15, 2013 Rise Set
Actual Time 7:53 AM EDT 6:57 PM EDT
Civil Twilight 7:25 AM EDT 7:25 PM EDT
Nautical Twilight 6:52 AM EDT 7:58 PM EDT
Astronomical Twilight 6:19 AM EDT 8:31 PM EDT
Moon 5:05 PM EDT (10/15) 4:10 AM EDT (10/15)
Length of Visible Light 12h 00m
Length of Day
11h 03m
Waxing Gibbous, 87% of the Moon is Illuminated
Oct 15
Waxing Gibbous
Oct 18
Full
Oct 26
Last Quarter
Nov 3
New
Nov 10
First Quarter

Hourly Weather History & Observations

Time (EDT) Temp. Windchill Dew Point Humidity Pressure Visibility Wind Dir Wind Speed Gust Speed Precip Events Conditions
12:14 AM 45.7 °F 42.7 °F 41.9 °F 87% 30.26 in 10.0 mi East 5.8 mph - N/A   Clear
12:34 AM 45.5 °F 42.5 °F 41.9 °F 87% 30.25 in 10.0 mi East 5.8 mph - N/A   Clear
12:54 AM 44.8 °F 41.0 °F 42.3 °F 91% 30.24 in 10.0 mi East 6.9 mph - N/A   Clear
1:14 AM 44.6 °F 41.4 °F 42.1 °F 91% 30.24 in 10.0 mi East 5.8 mph - N/A   Clear
1:34 AM 43.7 °F 40.3 °F 41.4 °F 91% 30.24 in 10.0 mi ESE 5.8 mph - N/A   Clear
1:54 AM 43.5 °F 40.1 °F 41.7 °F 93% 30.23 in 10.0 mi ESE 5.8 mph - N/A   Clear
2:14 AM 42.8 °F - 41.0 °F 93% 30.23 in 10.0 mi Calm Calm - N/A   Clear
2:34 AM 43.3 °F 41.7 °F 41.7 °F 94% 30.22 in 10.0 mi East 3.5 mph - N/A   Clear
2:54 AM 41.2 °F 39.2 °F 40.1 °F 96% 30.21 in 10.0 mi ENE 3.5 mph - N/A   Clear
3:14 AM 42.1 °F 39.2 °F 41.2 °F 97% 30.20 in 10.0 mi East 4.6 mph - N/A   Clear
3:34 AM 41.7 °F - 40.8 °F 97% 30.20 in 10.0 mi Calm Calm - N/A   Clear
3:54 AM 41.0 °F 37.1 °F 40.1 °F 97% 30.19 in 10.0 mi East 5.8 mph - N/A   Clear
4:14 AM 41.2 °F 37.3 °F 40.5 °F 97% 30.17 in 10.0 mi East 5.8 mph - N/A   Clear
4:34 AM 41.2 °F 38.2 °F 40.3 °F 97% 30.17 in 10.0 mi East 4.6 mph - N/A   Clear
4:54 AM 41.4 °F 37.6 °F 40.6 °F 97% 30.16 in 10.0 mi East 5.8 mph - N/A   Clear
5:14 AM 41.4 °F 38.4 °F 40.6 °F 97% 30.15 in 10.0 mi East 4.6 mph - N/A   Clear
5:34 AM 41.2 °F 39.2 °F 40.5 °F 97% 30.15 in 10.0 mi East 3.5 mph - N/A   Clear
5:54 AM 40.1 °F 36.9 °F 39.2 °F 97% 30.15 in 7.0 mi East 4.6 mph - N/A   Clear
6:14 AM 40.8 °F 37.8 °F 40.3 °F 98% 30.14 in 7.0 mi East 4.6 mph - N/A   Clear
6:34 AM 40.8 °F 38.8 °F 40.3 °F 98% 30.13 in 5.0 mi East 3.5 mph - N/A   Clear
6:54 AM 39.4 °F 36.1 °F 39.0 °F 99% 30.12 in 5.0 mi East 4.6 mph - N/A   Clear
7:14 AM 40.6 °F 37.5 °F 40.3 °F 99% 30.12 in 5.0 mi East 4.6 mph - N/A   Clear
7:34 AM 41.0 °F 38.0 °F 40.5 °F 98% 30.11 in 7.0 mi East 4.6 mph - N/A   Clear
7:54 AM 41.2 °F 38.2 °F 41.0 °F 99% 30.11 in 5.0 mi East 4.6 mph - N/A   Clear
8:14 AM 41.2 °F 38.2 °F 41.0 °F 99% 30.10 in 5.0 mi ESE 4.6 mph - N/A   Clear
8:34 AM 42.1 °F - 41.7 °F 99% 30.10 in 5.0 mi Calm Calm - N/A   Clear
8:54 AM 42.1 °F 40.2 °F 41.5 °F 98% 30.10 in 5.0 mi East 3.5 mph - N/A   Clear
9:14 AM 42.8 °F 41.1 °F 42.3 °F 98% 30.10 in 5.0 mi East 3.5 mph - N/A   Clear
9:34 AM 45.3 °F - 44.6 °F 97% 30.09 in 7.0 mi Calm Calm - N/A   Clear
9:54 AM 46.6 °F - 45.9 °F 97% 30.09 in 10.0 mi East 3.5 mph - N/A   Clear
10:14 AM 47.7 °F - 46.2 °F 95% 30.07 in 10.0 mi ESE 5.8 mph - N/A   Clear
10:34 AM 49.3 °F - 46.8 °F 91% 30.06 in 10.0 mi ESE 4.6 mph - N/A   Scattered Clouds
10:54 AM 50.4 °F - 47.7 °F 90% 30.06 in 10.0 mi ESE 4.6 mph - N/A   Scattered Clouds
11:14 AM 52.0 °F - 48.7 °F 89% 30.05 in 10.0 mi SE 5.8 mph - N/A   Overcast
11:34 AM 54.7 °F - 50.4 °F 85% 30.03 in 10.0 mi SE 9.2 mph - N/A   Scattered Clouds
11:54 AM 57.2 °F - 51.8 °F 82% 30.01 in 10.0 mi SE 10.4 mph - N/A   Clear
12:14 PM 59.5 °F - 52.3 °F 77% 30.02 in 10.0 mi SSE 10.4 mph - N/A   Scattered Clouds
12:34 PM 60.8 °F - 53.1 °F 76% 30.01 in 10.0 mi South 13.8 mph - N/A   Scattered Clouds
12:54 PM 61.0 °F - 54.0 °F 78% 30.01 in 10.0 mi South 12.7 mph 17.3 mph N/A   Clear
1:14 PM 62.1 °F - 54.3 °F 76% 29.99 in 7.0 mi SSE 15.0 mph - N/A   Clear
1:34 PM 62.4 °F - 54.1 °F 74% 29.97 in 10.0 mi SSE 15.0 mph - N/A   Scattered Clouds
1:54 PM 62.8 °F - 54.7 °F 75% 29.95 in 10.0 mi SSE 11.5 mph - N/A   Overcast
2:14 PM 63.5 °F - 54.9 °F 73% 29.94 in 10.0 mi SE 11.5 mph - N/A   Overcast
2:34 PM 64.4 °F - 55.4 °F 73% 29.93 in 10.0 mi SSE 15.0 mph - N/A   Overcast
2:54 PM 64.9 °F - 55.6 °F 72% 29.92 in 10.0 mi SSE 11.5 mph 18.4 mph N/A   Overcast
3:14 PM 65.8 °F - 56.1 °F 71% 29.89 in 10.0 mi SSE 16.1 mph - N/A   Overcast
3:34 PM 65.5 °F - 56.3 °F 72% 29.88 in 10.0 mi SE 18.4 mph - N/A   Mostly Cloudy
3:54 PM 65.7 °F - 56.1 °F 71% 29.88 in 10.0 mi SSE 20.7 mph - N/A   Overcast
4:14 PM 65.3 °F - 56.3 °F 73% 29.87 in 10.0 mi SSE 17.3 mph - N/A   Overcast
4:34 PM 64.4 °F - 56.3 °F 75% 29.86 in 10.0 mi SSE 15.0 mph 19.6 mph N/A   Overcast
4:54 PM 63.9 °F - 56.3 °F 76% 29.85 in 10.0 mi SSE 11.5 mph 16.1 mph N/A   Overcast
5:14 PM 63.9 °F - 56.3 °F 76% 29.84 in 10.0 mi SSE 12.7 mph - N/A   Overcast
5:34 PM 63.1 °F - 56.1 °F 78% 29.84 in 10.0 mi SSE 15.0 mph - N/A   Overcast
5:54 PM 63.5 °F - 55.8 °F 76% 29.84 in 10.0 mi South 10.4 mph - N/A   Overcast
6:14 PM 62.2 °F - 56.5 °F 81% 29.83 in 10.0 mi SSE 11.5 mph - N/A Rain Rain
6:34 PM 61.7 °F - 56.7 °F 84% 29.82 in 10.0 mi South 10.4 mph - N/A   Drizzle
6:54 PM 61.5 °F - 56.8 °F 85% 29.82 in 10.0 mi South 10.4 mph - N/A Rain Rain
7:14 PM 61.2 °F - 57.6 °F 88% 29.82 in 7.0 mi South 11.5 mph - 0.01 in Rain Light Rain
7:34 PM 60.6 °F - 58.3 °F 92% 29.82 in 5.0 mi South 10.4 mph - 0.07 in Rain Heavy Rain
7:54 PM 60.3 °F - 59.0 °F 96% 29.82 in 5.0 mi South 13.8 mph - 0.09 in Rain Rain
8:14 PM 60.1 °F - 59.0 °F 96% 29.81 in 4.0 mi South 11.5 mph 17.3 mph N/A   Heavy Drizzle
8:34 PM 59.9 °F - 59.0 °F 97% 29.80 in 4.0 mi South 9.2 mph - 0.03 in Rain Light Rain
8:54 PM 60.1 °F - 59.2 °F 97% 29.80 in 3.0 mi South 9.2 mph - 0.04 in Rain Rain
9:14 PM 60.3 °F - 59.5 °F 97% 29.80 in 3.0 mi South 10.4 mph - N/A Rain Rain
9:34 PM 60.6 °F - 59.9 °F 97% 29.81 in 3.0 mi West 12.7 mph - 0.05 in Rain Heavy Rain
9:54 PM 61.2 °F - 59.7 °F 95% 29.80 in 7.0 mi SW 10.4 mph - 0.10 in Rain Light Rain
10:14 PM 61.2 °F - 59.9 °F 96% 29.80 in 10.0 mi SSW 8.1 mph - N/A   Overcast
10:34 PM 61.3 °F - 60.3 °F 96% 29.80 in 7.0 mi SW 6.9 mph - N/A   Overcast
10:54 PM 61.2 °F - 60.3 °F 97% 29.80 in 7.0 mi SW 9.2 mph - N/A   Overcast
11:14 PM 61.2 °F - 60.1 °F 96% 29.80 in 7.0 mi SW 8.1 mph - N/A   Overcast
11:34 PM 61.2 °F - 60.3 °F 97% 29.79 in 7.0 mi WSW 6.9 mph - N/A   Overcast
11:54 PM 61.2 °F - 60.1 °F 96% 29.79 in 7.0 mi SW 6.9 mph - N/A   Overcast